Weather History for Greenville, AL

Change the Weather History Date:

Sunday, November 25, 2012

  Actual Average Record
Temperature  
Mean Temperature 46 °F -  
Max Temperature 63 °F 66 °F 81 °F (1951)
Min Temperature 28 °F 42 °F 11 °F (1970)
Degree Days  
Heating Degree Days 20    
Moisture  
Dew Point 26 °F    
Average Humidity 59    
Maximum Humidity 88    
Minimum Humidity 19    
Precipitation  
Precipitation 0.00 in - - ()
Sea Level Pressure  
Sea Level Pressure 30.16 in    
Wind  
Wind Speed 2 mph (West)    
Max Wind Speed 7 mph    
Max Gust Speed -    
Visibility 10 miles    
Events      
Averages and records for this station are not official NWS values.
T = Trace of Precipitation, MM = Missing Value Source: NWS Daily Summary

Daily Weather History Graph

Daily Weather History Graph

Search for Another Location

Airport:

Trip Planner

Search our weather history database for the weather conditions in past years. The results will help you decide how hot, cold, wet, or windy it might be!

Date:

Astronomy

Nov. 25, 2012 Rise Set
Actual Time 6:24 AM CST 4:42 PM CST
Civil Twilight 5:57 AM CST 5:09 PM CST
Nautical Twilight 5:27 AM CST 5:39 PM CST
Astronomical Twilight 4:58 AM CST 6:08 PM CST
Moon 2:54 PM CST (11/25) 3:44 AM CST (11/25)
Length of Visible Light 11h 11m
Length of Day
10h 18m
Waxing Gibbous, 93% of the Moon is Illuminated
Nov 25
Waxing Gibbous
Nov 28
Full
Dec 6
Last Quarter
Dec 13
New
Dec 19
First Quarter

Hourly Weather History & Observations

Time (CST) Temp. Windchill Dew Point Humidity Pressure Visibility Wind Dir Wind Speed Gust Speed Precip Events Conditions
12:56 AM 30.0 °F 24.1 °F 27.0 °F 88% 30.16 in 10.0 mi North 5.8 mph - N/A   Clear
1:56 AM 33.1 °F 27.7 °F 26.1 °F 75% 30.15 in 10.0 mi North 5.8 mph - N/A   Clear
2:56 AM 30.9 °F - 26.1 °F 82% 30.15 in 10.0 mi Calm Calm - N/A   Clear
3:56 AM 30.9 °F - 26.1 °F 82% 30.17 in 10.0 mi Calm Calm - N/A   Clear
4:56 AM 28.9 °F - 25.0 °F 85% 30.16 in 10.0 mi Calm Calm - N/A   Clear
5:56 AM 28.0 °F - 25.0 °F 88% 30.19 in 10.0 mi Calm Calm - N/A   Clear
6:56 AM 30.0 °F - 26.1 °F 85% 30.19 in 10.0 mi Calm Calm - N/A   Clear
7:56 AM 37.9 °F - 30.0 °F 73% 30.22 in 10.0 mi Calm Calm - N/A   Clear
8:56 AM 46.9 °F - 28.0 °F 48% 30.23 in 10.0 mi Calm Calm - N/A   Clear
9:56 AM 51.1 °F - 25.0 °F 36% 30.23 in 10.0 mi Variable 3.5 mph - N/A   Clear
10:56 AM 55.0 °F - 21.0 °F 27% 30.20 in 10.0 mi Calm Calm - N/A   Clear
11:56 AM 59.0 °F - 21.0 °F 23% 30.16 in 10.0 mi SW 5.8 mph - N/A   Clear
12:56 PM 61.0 °F - 19.9 °F 21% 30.13 in 10.0 mi Variable 5.8 mph - N/A   Clear
1:56 PM 62.1 °F - 19.0 °F 19% 30.12 in 10.0 mi WSW 6.9 mph - N/A   Clear
2:56 PM 63.0 °F - 21.0 °F 20% 30.11 in 10.0 mi WSW 3.5 mph - N/A   Clear
3:56 PM 61.0 °F - 21.9 °F 22% 30.11 in 10.0 mi SSW 4.6 mph - N/A   Clear
4:56 PM 55.0 °F - 25.0 °F 31% 30.11 in 10.0 mi Calm Calm - N/A   Clear
5:56 PM 48.0 °F - 32.0 °F 54% 30.13 in 10.0 mi Calm Calm - N/A   Clear
6:56 PM 44.1 °F - 32.0 °F 63% 30.14 in 10.0 mi Calm Calm - N/A   Clear
7:56 PM 41.0 °F - 30.9 °F 67% 30.15 in 10.0 mi Calm Calm - N/A   Clear
8:56 PM 37.9 °F - 30.9 °F 76% 30.15 in 10.0 mi Calm Calm - N/A   Clear
9:56 PM 36.0 °F - 30.0 °F 79% 30.15 in 10.0 mi Calm Calm - N/A   Clear
10:56 PM 37.0 °F - 30.0 °F 76% 30.14 in 10.0 mi Calm Calm - N/A   Clear
11:56 PM 33.1 °F - 28.9 °F 85% 30.14 in 10.0 mi Calm Calm - N/A   Clear